Location: Almena Post Office
(39.8928°N, 99.7066°W)
Time: 12:17:27
(UTC+00:00)

Atlas Centaur 2 - Pass Details

Date: 27 February 2020
Orbit: 459 x 1310 km, 30.4° (Epoch: 04 April)

Event Time Altitude Azimuth Distance (km) Brightness Sun altitude
Exits shadow 12:45:55 - 258° (WSW) 3,469 4.8 -6.5°
Reaches altitude 10° 12:47:08 10° 254° (WSW) 3,111 4.6 -6.2°
Maximum altitude 12:54:23 39° 189° (S) 1,825 3.9 -4.9°
Drops below altitude 10° 13:02:07 10° 125° (SE) 3,315 6.5 -3.4°
Sets 13:05:17 0° 118° (ESE) 4,259 7.5 -2.8°
